EW5676 Weather Reports


Display with metric or nautical units.
time (UTC)temp
F
wind
direction
speed
MPH
gust
MPH
rain 1hr
in
rain 24hr
in
rain mn
in
humidity
%
barometer
mb
20260510192712 67 317 4.0 9.0 0.00 0.00 0.00 73 1019.1
20260510191813 67 300 5.0 9.0 0.00 0.00 0.00 70 1019.2
20260510190912 68 300 4.0 9.0 0.00 0.00 0.00 69 1019.2
20260510190012 68 288 3.0 7.0 0.00 0.00 0.00 70 1019.1
20260510185113 68 276 3.0 8.0 0.00 0.00 0.00 70 1019.1
20260510184213 68 257 2.0 5.0 0.00 0.00 0.00 74 1019.2
20260510183312 67 344 1.0 5.0 0.00 0.00 0.00 79 1019.2
20260510182412 65 338 2.0 4.0 0.00 0.00 0.00 81 1019.3
20260510181512 63 320 2.0 4.0 0.00 0.00 0.00 85 1019.3
20260510180613 62 309 5.0 9.0 0.00 0.00 0.00 85 1019.6
20260510174812 64 304 3.0 7.0 0.00 0.00 0.00 83 1019.5
20260510173912 64 335 1.0 5.0 0.00 0.00 0.00 84 1019.5
20260510173012 64 244 4.0 9.0 0.00 0.00 0.00 84 1019.4
20260510172112 64 201 2.0 6.0 0.00 0.00 0.00 85 1019.4
20260510171212 64 240 2.0 5.0 0.00 0.00 0.00 85 1019.2
20260510170312 63 164 3.0 5.0 0.00 0.00 0.00 87 1019.4
20260510165412 62 190 4.0 7.0 0.00 0.00 0.00 88 1019.5
20260510164512 63 198 3.0 8.0 0.00 0.00 0.00 91 1019.5
20260510163611 61 236 2.0 7.0 0.00 0.00 0.00 92 1019.5
20260510162712 61 276 3.0 6.0 0.00 0.00 0.00 94 1019.5
20260510161812 60 281 1.0 3.0 0.00 0.00 0.00 94 1019.7
20260510160911 59 311 1.0 3.0 0.00 0.00 0.00 94 1019.5
20260510160011 58 311 2.0 5.0 0.00 0.00 0.00 94 1019.7
20260510155112 58 296 1.0 5.0 0.00 0.00 0.00 94 1019.9
20260510154212 58 314 2.0 5.0 0.00 0.00 0.00 95 1020.0
20260510153311 58 246 2.0 5.0 0.00 0.00 0.00 95 1020.2
20260510150612 57 215 1.0 3.0 0.00 0.00 0.00 96 1020.1
20260510145712 57 177 2.0 4.0 0.00 0.00 0.00 96 1020.2
20260510144812 57 191 3.0 5.0 0.00 0.00 0.00 95 1019.9
20260510143011 56 222 1.0 2.0 0.00 0.00 0.00 96 1019.7
20260510142111 56 266 1.0 3.0 0.00 0.00 0.00 96 1019.6
20260510141212 56 226 2.0 4.0 0.00 0.00 0.00 96 1019.6
20260510140311 56 225 1.0 4.0 0.00 0.00 0.00 96 1019.7
20260510135411 56 219 1.0 4.0 0.00 0.00 0.00 96 1019.6
20260510133612 56 189 2.0 5.0 0.00 0.00 0.00 96 1019.4
20260510132712 56 233 2.0 4.0 0.00 0.00 0.00 96 1019.5
20260510131811 55 177 2.0 4.0 0.00 0.00 0.00 96 1019.4
20260510130911 55 152 1.0 4.0 0.00 0.00 0.00 96 1019.2
20260510123311 53 120 3.0 5.0 0.00 0.00 0.00 96 1018.8
20260510122410 53 122 3.0 6.0 0.00 0.00 0.00 96 1018.7
20260510121511 53 138 2.0 5.0 0.00 0.00 0.00 96 1018.8
20260510120611 52 126 4.0 8.0 0.00 0.00 0.00 96 1018.8
20260510115711 52 123 3.0 6.0 0.00 0.00 0.00 96 1018.8
20260510114811 52 97 3.0 5.0 0.00 0.00 0.00 96 1018.7
20260510113911 52 89 3.0 7.0 0.00 0.00 0.00 96 1018.6
20260510113011 51 71 2.0 5.0 0.00 0.00 0.00 96 1018.6
20260510112111 51 80 3.0 5.0 0.00 0.00 0.00 96 1018.7
20260510111210 51 88 4.0 7.0 0.00 0.00 0.00 96 1018.6
20260510105411 51 79 2.0 6.0 0.00 0.00 0.00 96 1018.6
20260510104510 51 73 2.0 4.0 0.00 0.00 0.00 96 1018.7
20260510103612 51 57 1.0 3.0 0.00 0.00 0.00 96 1018.6
20260510102712 51 44 3.0 6.0 0.00 0.00 0.00 96 1018.7
20260510101810 51 7 3.0 5.0 0.00 0.00 0.00 96 1018.8
20260510100910 51 5 2.0 5.0 0.00 0.00 0.00 96 1018.7
20260510100010 51 358 3.0 6.0 0.00 0.00 0.00 96 1018.7
20260510095111 51 334 3.0 8.0 0.00 0.00 0.00 96 1018.9
20260510094210 51 328 4.0 9.0 0.00 0.00 0.00 96 1019.0
20260510093310 51 327 5.0 8.0 0.00 0.00 0.00 96 1018.9
20260510092410 52 322 5.0 9.0 0.00 0.00 0.00 96 1018.7
20260510091511 52 324 4.0 11.0 0.00 0.00 0.00 96 1018.6
20260510090610 52 323 0.0 3.0 0.00 0.00 0.00 96 1018.2
20260510085711 52 0 0.0 0.0 0.00 0.00 0.00 96 1017.8
20260510084810 52 146 1.0 2.0 0.00 0.00 0.00 96 1017.8
20260510083910 52 104 0.0 2.0 0.00 0.00 0.00 96 1017.9
20260510083010 52 0 0.0 0.0 0.00 0.00 0.00 96 1018.1
20260510082110 52 0 0.0 0.0 0.00 0.00 0.00 96 1018.0
20260510081210 52 39 0.0 1.0 0.00 0.00 0.00 96 1017.9
20260510080310 52 36 0.0 1.0 0.00 0.00 0.00 96 1017.8
20260510075410 52 0 0.0 0.0 0.00 0.00 0.00 96 1017.7
20260510073611 52 314 0.0 1.0 0.00 0.00 0.00 96 1017.9
20260510071810 52 330 2.0 3.0 0.00 0.00 0.00 96 1017.8
20260510070909 53 0 0.0 0.0 0.00 0.00 0.00 96 1017.6
20260510070010 53 0 0.0 0.0 0.00 0.00 0.00 96 1017.5
20260510065109 53 0 0.0 0.0 0.00 0.00 0.00 96 1017.4
20260510064210 53 0 0.0 0.0 0.00 0.00 0.00 96 1017.4
20260510063309 53 0 0.0 0.0 0.00 0.00 0.00 96 1017.4
20260510060610 53 189 0.0 1.0 0.00 0.00 0.00 96 1017.4
20260510055709 53 187 0.0 2.0 0.00 0.00 0.00 96 1017.5
20260510054810 53 168 0.0 1.0 0.00 0.00 0.00 96 1017.6
20260510053910 53 156 0.0 1.0 0.00 0.00 0.00 96 1017.6
20260510053009 53 160 1.0 2.0 0.00 0.00 0.00 96 1017.6
20260510052109 53 134 1.0 3.0 0.00 0.00 0.00 95 1017.6
20260510051209 53 185 1.0 3.0 0.00 0.00 0.00 95 1017.6
20260510050310 53 208 2.0 5.0 0.00 0.00 0.00 95 1017.8
20260510045409 53 193 2.0 5.0 0.00 0.00 0.00 95 1017.9
20260510044509 53 205 1.0 3.0 0.00 0.00 0.00 95 1017.8
20260510043609 53 203 1.0 4.0 0.00 0.00 0.00 95 1017.7
20260510042709 53 151 2.0 4.0 0.00 0.00 0.00 95 1017.7
20260510040909 53 164 1.0 4.0 0.00 0.00 0.00 95 1017.5
20260510040009 53 211 1.0 4.0 0.00 0.00 0.00 95 1017.3
20260510035109 53 207 1.0 3.0 0.00 0.00 0.00 95 1017.3
20260510034209 53 197 1.0 4.0 0.00 0.00 0.00 95 1017.4
20260510033309 53 144 1.0 3.0 0.00 0.00 0.00 95 1017.3
20260510032408 53 175 2.0 4.0 0.00 0.00 0.00 95 1017.3
20260510031509 53 188 2.0 5.0 0.00 0.00 0.00 95 1017.5
20260510030609 53 144 2.0 5.0 0.00 0.00 0.00 95 1017.5
20260510025708 53 207 1.0 5.0 0.00 0.00 0.00 95 1017.4
20260510024808 53 199 0.0 1.0 0.00 0.00 0.00 95 1017.5
20260510023008 53 155 0.0 2.0 0.00 0.00 0.00 95 1017.4
20260510022108 53 147 2.0 4.0 0.00 0.00 0.00 95 1017.4
20260510021208 53 143 2.0 5.0 0.00 0.00 0.00 95 1017.3
20260510020308 53 155 1.0 4.0 0.00 0.00 0.00 95 1017.4
20260510015408 53 169 2.0 4.0 0.00 0.00 0.00 95 1017.4
20260510014508 53 150 1.0 3.0 0.00 0.00 0.00 95 1017.3
20260510013608 52 130 0.0 4.0 0.00 0.00 0.00 95 1017.2
20260510012708 52 0 0.0 0.0 0.00 0.00 0.00 94 1017.3
20260510011809 52 0 0.0 0.0 0.00 0.00 0.00 94 1017.2
20260510010908 53 0 0.0 0.0 0.00 0.00 0.00 94 1017.2
20260510010008 53 0 0.0 0.0 0.00 0.00 0.00 94 1017.3
20260510005110 53 0 0.0 0.0 0.00 0.00 0.00 94 1017.0
20260510004209 53 163 1.0 3.0 0.00 0.00 0.00 94 1017.0
20260510003309 53 147 1.0 3.0 0.00 0.00 0.00 94 1016.8
20260510002408 53 135 2.0 4.0 0.00 0.00 0.00 94 1016.7
20260510001508 53 128 2.0 4.0 0.00 0.00 0.00 94 1016.7
20260510000608 53 138 1.0 3.0 0.00 0.00 0.00 94 1016.7
20260509235709 53 87 1.0 5.0 0.00 0.00 0.00 94 1016.8
20260509234809 53 126 3.0 7.0 0.00 0.00 0.00 94 1016.7
20260509233908 53 168 2.0 6.0 0.00 0.00 0.00 94 1017.0
20260509233008 53 131 3.0 6.0 0.00 0.00 0.00 94 1016.8
20260509232108 53 258 2.0 4.0 0.00 0.00 0.00 93 1017.1
20260509231208 53 289 3.0 9.0 0.00 0.00 0.00 93 1017.5
20260509230307 53 282 2.0 7.0 0.00 0.00 0.00 93 1017.7
20260509224508 53 269 1.0 3.0 0.00 0.00 0.00 93 1017.2
20260509223607 53 206 1.0 3.0 0.00 0.00 0.00 93 1017.3
20260509221808 53 109 2.0 3.0 0.00 0.00 0.00 93 1017.3
20260509220907 53 178 1.0 4.0 0.00 0.00 0.00 92 1017.5
20260509220007 53 212 2.0 5.0 0.00 0.00 0.00 92 1017.9
20260509215107 53 209 1.0 5.0 0.00 0.00 0.00 92 1017.9
20260509214207 53 207 2.0 7.0 0.00 0.00 0.00 92 1017.8
20260509212408 54 229 3.0 5.0 0.00 0.00 0.00 91 1018.0
20260509211508 54 217 3.0 9.0 0.00 0.00 0.00 91 1017.9
20260509210607 54 205 4.0 9.0 0.00 0.00 0.00 91 1017.6
20260509205708 54 232 3.0 7.0 0.00 0.00 0.00 91 1017.8
20260509203907 55 237 4.0 9.0 0.00 0.00 0.00 92 1017.9
20260509203007 55 250 2.0 5.0 0.00 0.00 0.00 93 1017.8
20260509202107 55 237 3.0 10.0 0.00 0.00 0.00 93 1017.9
20260509201207 55 234 4.0 12.0 0.00 0.00 0.00 92 1018.2
20260509200307 55 223 5.0 20.0 0.00 0.00 0.00 92 1018.2
20260509194507 55 216 4.0 11.0 0.00 0.00 0.00 92 1018.2
20260509193607 55 237 4.0 11.0 0.00 0.00 0.00 92 1018.2